Estación Meteorológica Peña el Pijo (Robertgarden) [ 07/15/20 06:29:21 CEST ]

Fecha Hora Presion(HPa) Temp (°C) Humedad % Rocio (°C) Viento ( m/s) Direccion Lluvia 1Hora(mm) Lluvia 24H(mm) LLuvia Total(mm)
2020-Apr-15 01:09:06 1002.900 - - - - W     39.88
2020-Apr-15 02:09:31 1002.800 - - - - W     39.88
2020-Apr-15 03:09:10 1002.900 - - - - W     39.88
2020-Apr-15 04:09:46 1002.300 - - - - W     39.88
2020-Apr-15 05:08:54 1002.200 - - - - W     39.88
2020-Apr-15 06:08:55 1002.700 - - - - W     39.88
2020-Apr-15 07:09:24 1002.400 - - - - W     39.88
2020-Apr-15 08:09:52 1002.800 - - - - W     39.88
2020-Apr-15 09:10:05 1003.600 - - - - W     39.88
2020-Apr-15 10:09:54 1004.100 - - - - W     39.88
2020-Apr-15 11:08:47 1004.500 - - - - W     39.88
2020-Apr-15 12:09:20 1004.500 - - - - W     39.88
2020-Apr-15 13:09:11 1004.900 - - - - W     39.88
2020-Apr-15 14:09:21 1004.500 - - - - W     39.88
2020-Apr-15 15:09:19 1004.200 - - - - W     39.88
2020-Apr-15 16:09:03 1004.400 - - - - W     39.88
2020-Apr-15 17:08:52 1004.700 - - - - W     39.88
2020-Apr-15 18:08:46 1004.900 - - - - W     39.88
2020-Apr-15 19:09:21 1005.000 - - - - W     39.88
2020-Apr-15 20:09:11 1005.600 - - - - W     39.88
2020-Apr-15 21:08:58 1006.600 - - - - W     39.88
2020-Apr-15 22:09:15 1007.700 - - - - W     39.88
2020-Apr-15 23:09:05 1008.400 - - - - W     39.88

Temperatura Máxima:    Temperatura Mínima:
Presión Máxima:1008.400 Hpa    Presión Mínima:1002.200 Hpa


Volver